CW3660 Weather Reports


Display with metric or nautical units.
time (UTC)temp
F
wind
direction
speed
MPH
gust
MPH
rain 1hr
in
rain 24hr
in
rain mn
in
humidity
%
barometer
mb
20260902123036 63 90 1.0 3.0 0.00 0.37 0.00 96 1021.7
20260902122016 63 68 1.0 3.0 0.00 0.39 0.00 96 1021.8
20260902121056 63 45 1.0 3.0 0.00 0.40 0.00 96 1021.9
20260902120016 62 0.0 0.0 0.00 0.40 0.00 96 1021.9
20260902115036 62 0.0 1.0 0.00 0.40 0.00 96 1021.9
20260902114016 62 0.0 1.0 0.00 0.40 0.00 96 1022.0
20260902113016 62 0.0 2.0 0.00 0.40 0.00 96 1022.0
20260902112016 62 0.0 2.0 0.00 0.40 0.00 96 1021.8
20260902111016 62 0.0 0.0 0.00 0.40 0.00 96 1021.7
20260902110016 62 0.0 0.0 0.00 0.40 0.00 96 1021.7
20260902105016 62 0.0 0.0 0.00 0.40 0.00 96 1021.5
20260902104056 62 0.0 0.0 0.00 0.40 0.00 96 1021.3
20260902103035 62 0.0 0.0 0.00 0.40 0.00 96 1021.1
20260902102016 62 0.0 0.0 0.00 0.40 0.00 96 1021.2
20260902101036 62 0.0 0.0 0.00 0.41 0.00 96 1021.0
20260902100036 61 0.0 0.0 0.00 0.41 0.00 96 1021.0
20260902095016 61 0.0 0.0 0.00 0.41 0.00 96 1020.9
20260902094016 61 0.0 0.0 0.00 0.42 0.00 96 1020.7
20260902093036 61 0.0 0.0 0.00 0.42 0.00 96 1020.7
20260902092015 61 0.0 0.0 0.00 0.42 0.00 96 1020.6
20260902091015 61 0.0 0.0 0.00 0.42 0.00 96 1020.4
20260902090016 61 0.0 0.0 0.00 0.42 0.00 96 1020.4
20260902085015 62 0.0 0.0 0.00 0.42 0.00 96 1020.4
20260902084015 62 0.0 1.0 0.00 0.42 0.00 96 1020.2
20260902083015 62 0.0 4.0 0.00 0.42 0.00 96 1020.2
20260902082016 62 0 1.0 4.0 0.00 0.42 0.00 96 1020.4
20260902081015 62 338 1.0 3.0 0.00 0.42 0.00 96 1020.7
20260902080015 62 338 1.0 3.0 0.00 0.42 0.00 96 1020.6
20260902075015 62 270 1.0 3.0 0.00 0.42 0.00 96 1020.5
20260902074015 62 0.0 0.0 0.00 0.42 0.00 96 1020.5
20260902073015 62 0.0 0.0 0.00 0.42 0.00 96 1020.7
20260902072015 62 270 1.0 3.0 0.00 0.42 0.00 96 1020.6
20260902071015 62 0.0 1.0 0.00 0.42 0.00 96 1020.4
20260902070015 62 0.0 2.0 0.00 0.42 0.00 96 1020.4
20260902065015 62 0.0 1.0 0.00 0.42 0.00 96 1020.3
20260902064037 62 270 1.0 3.0 0.00 0.42 0.00 96 1020.3
20260902063017 62 270 1.0 3.0 0.00 0.42 0.00 96 1020.3
20260902062017 62 225 1.0 2.0 0.00 0.42 0.00 96 1020.6
20260902061029 62 0.0 0.0 0.00 0.42 0.00 96 1020.4
20260902060017 62 0.0 1.0 0.00 0.42 0.00 96 1020.5
20260902055017 62 0.0 1.0 0.00 0.42 0.00 96 1020.4
20260902054017 62 0.0 2.0 0.00 0.42 0.00 96 1020.3
20260902053017 62 0.0 0.0 0.00 0.42 0.00 96 1020.3
20260902052017 62 0.0 0.0 0.00 0.42 0.00 96 1020.1
20260902051017 62 0.0 1.0 0.00 0.42 0.00 96 1020.1
20260902050017 62 0.0 0.0 0.00 0.42 0.00 95 1020.0
20260902045017 62 0.0 0.0 0.00 0.42 0.00 95 1019.9
20260902044017 61 0.0 0.0 0.00 0.42 0.00 95 1019.8
20260902043017 61 0.0 1.0 0.00 0.42 0.00 95 1019.7
20260902042017 61 0.0 1.0 0.00 0.42 0.00 95 1019.7
20260902041017 62 0.0 0.0 0.00 0.42 0.00 95 1019.4
20260902040037 62 0.0 1.0 0.00 0.42 0.42 95 1019.1
20260902035015 62 0.0 0.0 0.00 0.42 0.42 95 1018.9
20260902034015 62 0.0 0.0 0.00 0.42 0.42 95 1018.9
20260902033015 62 0.0 0.0 0.00 0.42 0.42 95 1018.7
20260902032015 62 0.0 1.0 0.00 0.42 0.42 95 1019.0
20260902031015 62 0.0 0.0 0.00 0.42 0.42 95 1018.9
20260902030015 62 0.0 0.0 0.00 0.42 0.42 95 1018.8
20260902025016 62 0.0 1.0 0.00 0.42 0.42 95 1019.0
20260902024015 62 0.0 2.0 0.00 0.42 0.42 95 1019.2
20260902023015 62 0.0 1.0 0.00 0.42 0.42 95 1019.2
20260902022015 62 0.0 0.0 0.00 0.42 0.42 95 1019.1
20260902021015 62 0.0 0.0 0.00 0.42 0.42 95 1019.1
20260902020035 62 0.0 0.0 0.00 0.42 0.42 95 1019.1
20260902015015 63 0.0 0.0 0.00 0.42 0.42 95 1019.1
20260902014017 63 0.0 0.0 0.00 0.42 0.42 95 1019.2
20260902013017 63 0.0 0.0 0.00 0.42 0.42 95 1018.9
20260902012017 63 0.0 0.0 0.00 0.42 0.42 95 1019.0
20260902011017 63 0.0 0.0 0.00 0.42 0.42 94 1019.1
20260902010017 63 0.0 1.0 0.00 0.42 0.42 95 1019.0
20260902005017 63 0.0 1.0 0.00 0.42 0.42 95 1018.6
20260902004017 63 0.0 0.0 0.00 0.42 0.42 95 1018.7
20260902003017 63 0.0 0.0 0.00 0.42 0.42 95 1018.6
20260902002017 63 0.0 0.0 0.00 0.42 0.42 94 1018.5
20260902001017 63 0.0 0.0 0.00 0.42 0.42 94 1018.4
20260902000017 63 0.0 0.0 0.00 0.42 0.42 94 1018.3
20260901235017 63 0.0 0.0 0.00 0.42 0.42 94 1018.4
20260901234017 63 0.0 0.0 0.00 0.42 0.42 94 1018.4
20260901233057 63 0.0 0.0 0.00 0.42 0.42 94 1018.5
20260901232017 63 0.0 0.0 0.00 0.42 0.42 94 1018.5
20260901231017 63 0.0 0.0 0.00 0.42 0.42 94 1018.4
20260901230017 63 0.0 0.0 0.00 0.42 0.42 94 1018.3
20260901225017 63 0.0 1.0 0.00 0.42 0.42 94 1018.3
20260901224017 63 0.0 1.0 0.00 0.42 0.42 94 1018.2
20260901223017 63 0.0 2.0 0.00 0.42 0.42 94 1018.2
20260901222017 63 0.0 3.0 0.00 0.42 0.42 94 1018.3
20260901221017 63 0.0 3.0 0.00 0.42 0.42 94 1018.3
20260901220017 63 0.0 2.0 0.00 0.42 0.42 94 1018.2
20260901215017 63 0.0 3.0 0.00 0.42 0.42 94 1018.2
20260901214017 63 180 1.0 4.0 0.00 0.42 0.42 94 1018.0
20260901213037 63 180 1.0 4.0 0.00 0.42 0.42 93 1018.0
20260901212017 63 158 1.0 4.0 0.00 0.42 0.42 94 1018.0
20260901211017 63 180 1.0 5.0 0.00 0.42 0.42 94 1017.9
20260901210038 63 158 3.0 6.0 0.00 0.42 0.42 94 1017.9
20260901205016 64 180 2.0 7.0 0.00 0.42 0.42 94 1017.8
20260901204017 64 158 2.0 6.0 0.01 0.42 0.42 94 1017.6
20260901203017 64 158 2.0 5.0 0.01 0.42 0.42 94 1017.6
20260901202017 64 158 3.0 9.0 0.01 0.42 0.42 94 1017.6
20260901201137 66 158 1.0 9.0 0.03 0.42 0.42 95 1017.3
20260901200017 66 68 1.0 3.0 0.04 0.42 0.42 95 1017.3
20260901195017 66 0.0 3.0 0.07 0.42 0.42 95 1017.3
20260901194037 66 0.0 3.0 0.13 0.41 0.41 95 1017.3
20260901193117 66 0.0 3.0 0.20 0.41 0.41 95 1017.2
20260901192017 65 68 1.0 2.0 0.21 0.41 0.41 95 1017.3
20260901191017 65 0.0 2.0 0.19 0.39 0.39 95 1017.4
20260901190017 65 0.0 3.0 0.19 0.38 0.38 95 1017.4
20260901185017 65 0.0 2.0 0.16 0.35 0.35 95 1017.4
20260901184017 65 45 1.0 4.0 0.09 0.28 0.28 94 1017.5
20260901183017 65 45 1.0 4.0 0.02 0.21 0.21 94 1017.4
20260901182036 66 45 1.0 3.0 0.03 0.20 0.20 94 1017.4
20260901181016 66 0.0 3.0 0.04 0.20 0.20 94 1017.3
20260901180016 66 0.0 3.0 0.04 0.19 0.20 94 1017.0
20260901175016 66 23 1.0 4.0 0.05 0.19 0.19 94 1017.0
20260901174036 66 113 1.0 4.0 0.05 0.19 0.19 94 1016.9
20260901173036 66 68 1.0 3.0 0.05 0.19 0.19 94 1016.9
20260901172016 66 45 1.0 7.0 0.03 0.17 0.17 94 1017.1
20260901171016 66 0.0 3.0 0.02 0.16 0.16 94 1017.0
20260901170016 66 0.0 3.0 0.01 0.15 0.15 94 1017.1
20260901165016 66 0.0 4.0 0.00 0.14 0.14 93 1017.2
20260901164016 66 0 1.0 6.0 0.00 0.14 0.14 93 1017.3
20260901163016 66 45 1.0 5.0 0.00 0.14 0.14 93 1017.3
20260901162016 67 0 1.0 4.0 0.00 0.14 0.14 93 1017.3
20260901161016 67 45 1.0 5.0 0.00 0.14 0.14 94 1017.2
20260901160016 67 293 1.0 5.0 0.00 0.14 0.14 94 1017.1
20260901155016 67 0.0 1.0 0.00 0.14 0.14 94 1017.0
20260901154016 67 0.0 4.0 0.00 0.14 0.14 94 1017.1
20260901153017 67 113 1.0 3.0 0.00 0.14 0.14 93 1017.1
20260901152017 67 113 1.0 3.0 0.00 0.14 0.14 94 1017.3
20260901151016 67 0.0 1.0 0.00 0.14 0.14 94 1017.4
20260901150016 67 0.0 2.0 0.00 0.14 0.14 95 1017.2
20260901145036 66 135 1.0 3.0 0.00 0.14 0.14 94 1017.1
20260901144016 66 0.0 1.0 0.00 0.14 0.14 95 1017.2
20260901143056 65 135 1.0 2.0 0.01 0.14 0.14 94 1017.2
20260901142016 65 135 1.0 6.0 0.01 0.14 0.14 95 1017.2
20260901141016 65 45 1.0 4.0 0.01 0.14 0.14 95 1017.1
20260901140036 65 23 1.0 5.0 0.02 0.14 0.14 94 1017.2
20260901135036 66 338 1.0 5.0 0.03 0.14 0.14 95 1017.3
20260901134036 66 23 1.0 6.0 0.05 0.14 0.14 95 1017.5
20260901133016 66 23 1.0 5.0 0.08 0.13 0.13 95 1017.5
20260901132016 66 23 2.0 4.0 0.10 0.13 0.13 95 1017.6
20260901131016 66 0 1.0 5.0 0.11 0.13 0.13 94 1017.6
20260901130016 66 0.0 3.0 0.10 0.12 0.12 94 1017.4
20260901125036 66 23 1.0 3.0 0.09 0.11 0.11 94 1017.4
20260901124016 66 23 1.0 3.0 0.07 0.09 0.09 94 1017.7